TimeBST,TemperatureF,Dew PointF,Humidity,Sea Level PressureIn,VisibilityMPH,Wind Direction,Wind SpeedMPH,Gust SpeedMPH,PrecipitationIn,Events,Conditions,WindDirDegrees,DateUTC
1:00 AM,65,55,62,29.96,19,ESE,13.8,,,,Clear,110,2013-08-23 00:00:00
3:50 AM,64.4,55.4,73,29.92,-9999.0,SE,10.4,-,N/A,,Clear,130,2013-08-23 02:50:00
4:20 AM,62.6,55.4,77,29.92,-9999.0,ESE,11.5,-,N/A,,Clear,120,2013-08-23 03:20:00
4:50 AM,64.4,55.4,73,29.92,-9999.0,ESE,10.4,-,N/A,,Clear,120,2013-08-23 03:50:00
5:20 AM,64.4,55.4,73,29.92,-9999.0,ESE,10.4,-,N/A,,Clear,120,2013-08-23 04:20:00
5:50 AM,62.6,55.4,77,29.92,-9999.0,ESE,9.2,-,N/A,,Clear,110,2013-08-23 04:50:00
6:20 AM,60.8,55.4,82,29.92,-9999.0,ESE,10.4,-,N/A,,Clear,120,2013-08-23 05:20:00
6:50 AM,62.6,55.4,77,29.92,-9999.0,ESE,8.1,-,N/A,,Clear,120,2013-08-23 05:50:00
7:00 AM,63,56,70,29.93,22,ESE,10.4,,,,Partly Cloudy,120,2013-08-23 06:00:00
7:20 AM,64.4,57.2,77,29.92,-9999.0,ESE,10.4,-,N/A,,Clear,120,2013-08-23 06:20:00
7:50 AM,66.2,57.2,73,29.92,-9999.0,ESE,10.4,-,N/A,,Clear,120,2013-08-23 06:50:00
8:20 AM,66.2,59.0,78,29.95,-9999.0,SE,9.2,-,N/A,,Clear,130,2013-08-23 07:20:00
8:50 AM,68.0,59.0,73,29.92,-9999.0,SE,9.2,-,N/A,,Clear,130,2013-08-23 07:50:00
9:20 AM,68.0,59.0,73,29.92,-9999.0,SE,11.5,-,N/A,,Clear,130,2013-08-23 08:20:00
9:50 AM,68.0,59.0,73,29.95,-9999.0,SSE,4.6,-,N/A,,Clear,150,2013-08-23 08:50:00
10:00 AM,69,58,61,29.94,19,SE,6.9,,,,Mostly Cloudy,140,2013-08-23 09:00:00
10:20 AM,71.6,53.6,53,29.95,-9999.0,SSE,10.4,-,N/A,,Clear,160,2013-08-23 09:20:00
10:50 AM,71.6,53.6,53,29.95,-9999.0,SSE,6.9,-,N/A,,Clear,160,2013-08-23 09:50:00
11:20 AM,71.6,55.4,57,29.92,-9999.0,SSE,8.1,-,N/A,,Clear,150,2013-08-23 10:20:00
11:50 AM,73.4,53.6,50,29.92,-9999.0,SW,4.6,-,N/A,,Clear,220,2013-08-23 10:50:00
12:20 PM,75.2,55.4,50,29.92,-9999.0,West,8.1,-,N/A,,Clear,260,2013-08-23 11:20:00
12:50 PM,73.4,60.8,65,29.92,-9999.0,WSW,6.9,-,N/A,,Clear,250,2013-08-23 11:50:00
1:00 PM,72,60,58,29.91,16,West,6.9,,,,Scattered Clouds,270,2013-08-23 12:00:00
1:20 PM,73.4,60.8,65,29.92,-9999.0,WSW,6.9,-,N/A,,Clear,250,2013-08-23 12:20:00
1:50 PM,73.4,59.0,61,29.92,-9999.0,West,4.6,-,N/A,,Clear,270,2013-08-23 12:50:00
2:20 PM,73.4,59.0,61,29.92,-9999.0,WNW,5.8,-,N/A,,Clear,300,2013-08-23 13:20:00
2:50 PM,71.6,60.8,69,29.92,6.2,West,5.8,-,N/A,,Partly Cloudy,260,2013-08-23 13:50:00
3:20 PM,71.6,60.8,69,29.92,6.2,WNW,8.1,-,N/A,,Partly Cloudy,290,2013-08-23 14:20:00
3:50 PM,69.8,60.8,73,29.89,-9999.0,West,5.8,-,N/A,,Clear,280,2013-08-23 14:50:00
4:00 PM,69,60,66,29.90,12,WNW,5.8,,,,Partly Cloudy,290,2013-08-23 15:00:00
4:20 PM,73.4,59.0,61,29.89,-9999.0,NW,6.9,-,N/A,,Clear,310,2013-08-23 15:20:00
4:50 PM,69.8,60.8,73,29.89,-9999.0,WNW,4.6,-,N/A,,Clear,290,2013-08-23 15:50:00
5:20 PM,66.2,60.8,83,29.89,6.2,WNW,8.1,-,N/A,,Unknown,300,2013-08-23 16:20:00
5:50 PM,66.2,59.0,78,29.89,6.2,NW,12.7,-,N/A,,Unknown,310,2013-08-23 16:50:00
6:20 PM,66.2,60.8,83,29.89,6.2,NNW,9.2,-,N/A,,Unknown,330,2013-08-23 17:20:00
6:50 PM,66.2,59.0,78,29.89,6.2,NW,9.2,-,N/A,,Unknown,320,2013-08-23 17:50:00
7:20 PM,64.4,59.0,83,29.89,-9999.0,North,10.4,-,N/A,,Clear,360,2013-08-23 18:20:00
7:50 PM,64.4,59.0,83,29.89,-9999.0,NW,6.9,-,N/A,,Clear,310,2013-08-23 18:50:00
8:20 PM,64.4,60.8,88,29.92,-9999.0,WNW,11.5,-,N/A,,Clear,300,2013-08-23 19:20:00
8:50 PM,62.6,60.8,94,29.95,6.2,WNW,10.4,-,N/A,,Scattered Clouds,300,2013-08-23 19:50:00
9:20 PM,62.6,60.8,94,29.92,1.9,WNW,8.1,-,N/A,,Mostly Cloudy,290,2013-08-23 20:20:00